Content
SEND FEEDBACK

Daily
Averages
Monthly
Summary
United States of America

BLACK HAWK, SOUTH DAKOTA


Home > North America > United States > South Dakota
Elevation: 3352 feet     Latitude: 44 05N     Longitude: 103 16W

WEATHER
 
SELECT A DAY
Number of Records: 204,091;   Date Range: 1/1/95 - 7/26/14
 
SHARE

PRINT THIS DATA

[ ← Previous Day ]
WEATHER ALMANAC - FEBRUARY 4, 2013
[ Next Day → ]
[ °C ]   °F
Weather ElementAverageHighLow
Temperature37.2 °F47.1 °F (1:55 pm)26.2 °F (3:55 am)
Dewpoint23.1 °F25.7 °F (5:55 pm)19.4 °F (5:55 am)
Humidity58.6 %78 % (3:55 am)37 % (1:55 pm)
Barometer29.87 in29.94 in (1:55 am)29.81 in (12:55 pm)
Wind Speed8.7 mph23 mph (2:55 pm)
Wind Gust31.1 mph (2:55 pm)
Weather ElementAverage
Visibility10 mi
Wind DirectionSW (229.1 °)

Weather ElementTotal
Precipitation---
Heating Degree Days28.4 (Base 65)
Averaged from 22 records on February 4, 2013
WEATHER CONDITIONS BREAKOUT
WIND DIRECTION BREAKOUT
WEATHER BY HOUR - FEBRUARY 4, 2013
[ °C ]   °F
Local TimeTemperatureDewpointHumidityBarometerVisibilityWind DirectionWind SpeedGust SpeedPrecipitationEventsConditions
1:55 AM28.9 °F21.4 °F73 %29.94 in10.0 miNW (320°)5.8 mphClear
3:55 AM26.2 °F20.3 °F78 %29.93 in10.0 miCalmClear
4:55 AM27.5 °F20.7 °F75 %29.93 in10.0 miCalmClear
5:55 AM28.0 °F19.4 °F70 %29.93 in10.0 miSW (230°)3.5 mphClear
6:55 AM29.1 °F19.9 °F69 %29.91 in10.0 miSouth (190°)4.6 mphOvercast
7:55 AM29.7 °F23.2 °F77 %29.91 in10.0 miSouth (170°)8.1 mphOvercast
8:55 AM31.3 °F23.9 °F74 %29.89 in10.0 miSSW (200°)5.8 mphMostly Cloudy
9:55 AM37.6 °F24.3 °F59 %29.87 in10.0 miSW (230°)4.6 mphPartly Cloudy
10:55 AM43.0 °F22.6 °F45 %29.85 in10.0 miCalmMostly Cloudy
11:55 AM45.9 °F22.6 °F40 %29.82 in10.0 miCalmOvercast
12:55 PM45.5 °F24.3 °F43 %29.81 in10.0 miNorth (360°)15.0 mphOvercast
1:55 PM47.1 °F21.9 °F37 %29.81 in10.0 miNNW (330°)20.7 mph27.6 mphOvercast
2:55 PM46.9 °F23.5 °F40 %29.81 in10.0 miNNW (330°)23.0 mph31.1 mphOvercast
3:55 PM45.1 °F24.3 °F44 %29.83 in10.0 miNNW (330°)18.4 mphOvercast
4:55 PM44.1 °F25.2 °F47 %29.83 in10.0 miNNW (330°)17.3 mphOvercast
5:55 PM39.7 °F25.7 °F57 %29.85 in10.0 miNW (320°)9.2 mphOvercast
6:55 PM39.0 °F25.2 °F58 %29.86 in10.0 miNW (310°)5.8 mphOvercast
7:55 PM36.1 °F23.7 °F61 %29.87 in10.0 miWSW (250°)6.9 mphScattered Clouds
8:55 PM33.6 °F23.5 °F67 %29.87 in10.0 miWSW (250°)8.1 mphMostly Cloudy
9:55 PM36.1 °F23.4 °F60 %29.84 in10.0 miWSW (250°)8.1 mphOvercast
10:55 PM35.6 °F24.4 °F64 %29.84 in10.0 miNW (310°)5.8 mphOvercast
11:55 PM42.4 °F25.7 °F52 %29.85 in10.0 miNNW (330°)19.6 mph26.5 mphOvercast
Hourly data recorded from KRCA, located miles away from Black Hawk, South Dakota







STORIES FROM OUR PARTNERS